User: anonymous   Login
Location: ????????
(54.8751°N, 38.5756°E)
Time: 15:56:28
(UTC+00:00)
Language:

BREEZE-M DEB (TANK) - Orbit

View from above orbital plane
View from above orbital plane
View from above satellite
View from above satellite

Ground track
Ground track

The orbit data is extracted from the following two-line orbital elements,

1 28116U 03056E   24173.31288237  .00006031  00000-0  10582-2 0  9991
2 28116  52.8332 153.6080 5727378 110.0753 318.1281  4.45796161325717
Epoch (UTC): 21 June 2024 07:30:33
Eccentricity: 0.5727378
inclination: 52.8332°
perigee height: 285 km
apogee height: 18148 km
right ascension of ascending node: 153.6080°
argument of perigee: 110.0753°
revolutions per day: 4.45796161
mean anomaly at epoch: 318.1281°
orbit number at epoch: 32571

The dashed part of the orbit path shows where the satellite is in the earth's shadow,  

DLR